Time,TemperatureF,DewpointF,PressureIn,WindDirection,WindDirectionDegrees,WindSpeedMPH,WindSpeedGustMPH,Humidity,HourlyPrecipIn,Conditions,Clouds,dailyrainin,SolarRadiationWatts/m^2,SoftwareType,DateUTC
2013-03-24 00:01:00,43.2,41.4,29.86,SSW,199,1.0,3.0,93,0.00,,,0.06,0.0,meteohub,2013-03-24 04:01:00,
2013-03-24 00:02:00,43.2,41.4,29.86,SSW,199,1.0,3.0,93,0.00,,,0.06,0.0,meteohub,2013-03-24 04:02:00,
2013-03-24 00:07:00,43.0,41.2,29.85,SSW,199,0.0,3.0,93,0.00,,,0.00,0.0,meteohub,2013-03-24 04:07:00,
2013-03-24 00:12:00,43.0,40.8,29.83,SSW,199,0.0,1.0,92,0.00,,,0.00,0.0,meteohub,2013-03-24 04:12:00,
2013-03-24 00:17:00,43.0,40.8,29.85,SE,143,0.0,2.0,92,0.00,,,0.00,0.0,meteohub,2013-03-24 04:17:00,
2013-03-24 00:22:00,42.8,40.6,29.84,SE,143,2.0,4.0,92,0.00,,,0.00,0.0,meteohub,2013-03-24 04:22:00,
2013-03-24 00:27:00,42.6,40.1,29.84,SE,133,1.0,4.0,91,0.00,,,0.00,0.0,meteohub,2013-03-24 04:27:00,
2013-03-24 00:33:00,42.6,40.1,29.84,SE,133,1.0,4.0,91,0.00,,,0.00,0.0,meteohub,2013-03-24 04:33:00,
2013-03-24 00:38:00,42.6,40.1,29.84,SE,133,0.0,3.0,91,0.00,,,0.00,0.0,meteohub,2013-03-24 04:38:00,
2013-03-24 00:43:00,42.6,40.1,29.84,SE,133,0.0,3.0,91,0.00,,,0.00,0.0,meteohub,2013-03-24 04:43:00,
2013-03-24 00:48:00,42.6,40.1,29.85,SE,133,0.0,2.0,91,0.00,,,0.00,0.0,meteohub,2013-03-24 04:48:00,
2013-03-24 00:53:00,42.6,40.1,29.84,SE,133,0.0,2.0,91,0.00,,,0.00,0.0,meteohub,2013-03-24 04:53:00,
2013-03-24 00:58:00,42.6,40.1,29.84,SE,133,0.0,2.0,91,0.00,,,0.00,0.0,meteohub,2013-03-24 04:58:00,
2013-03-24 01:03:00,42.6,40.1,29.86,SE,140,0.0,2.0,91,0.00,,,0.00,0.0,meteohub,2013-03-24 05:03:00,
2013-03-24 01:08:00,42.4,39.7,29.86,SE,140,0.0,2.0,90,0.00,,,0.00,0.0,meteohub,2013-03-24 05:08:00,
2013-03-24 01:13:00,42.4,39.7,29.87,SE,140,1.0,2.0,90,0.00,,,0.00,0.0,meteohub,2013-03-24 05:13:00,
2013-03-24 01:18:00,42.4,39.7,29.86,SE,140,0.0,2.0,90,0.00,,,0.00,0.0,meteohub,2013-03-24 05:18:00,
2013-03-24 01:23:00,42.3,39.7,29.86,SE,140,1.0,2.0,91,0.00,,,0.00,0.0,meteohub,2013-03-24 05:23:00,
2013-03-24 01:28:00,42.1,39.6,29.86,SE,141,0.0,2.0,91,0.00,,,0.00,0.0,meteohub,2013-03-24 05:28:00,
2013-03-24 01:33:00,42.1,40.3,29.88,SE,141,0.0,2.0,93,0.00,,,0.00,0.0,meteohub,2013-03-24 05:33:00,
2013-03-24 01:38:00,41.7,40.1,29.89,SE,141,0.0,2.0,94,0.00,,,0.00,0.0,meteohub,2013-03-24 05:38:00,
2013-03-24 01:44:00,41.5,39.9,29.89,SE,141,0.0,2.0,94,0.01,,,0.01,0.0,meteohub,2013-03-24 05:44:00,
2013-03-24 01:49:00,41.5,39.9,29.89,SE,141,0.0,1.0,94,0.01,,,0.01,0.0,meteohub,2013-03-24 05:49:00,
2013-03-24 01:54:00,41.5,40.3,29.88,SE,141,2.0,2.0,95,0.01,,,0.01,0.0,meteohub,2013-03-24 05:54:00,
2013-03-24 01:59:00,41.5,40.3,29.87,SE,141,1.0,2.0,95,0.01,,,0.01,0.0,meteohub,2013-03-24 05:59:00,
2013-03-24 02:04:00,41.4,40.1,29.86,SSW,199,2.0,2.0,95,0.02,,,0.02,0.0,meteohub,2013-03-24 06:04:00,
2013-03-24 02:09:00,41.4,40.1,29.85,SSW,199,0.0,3.0,95,0.03,,,0.03,0.0,meteohub,2013-03-24 06:09:00,
2013-03-24 02:14:00,41.4,40.3,29.85,SSW,199,0.0,3.0,96,0.04,,,0.04,0.0,meteohub,2013-03-24 06:14:00,
2013-03-24 02:19:00,41.2,40.1,29.84,WSW,252,1.0,3.0,96,0.05,,,0.05,0.0,meteohub,2013-03-24 06:19:00,
2013-03-24 02:24:00,41.2,40.1,29.83,WSW,252,2.0,3.0,96,0.05,,,0.05,0.0,meteohub,2013-03-24 06:24:00,
2013-03-24 02:29:00,41.0,39.9,29.83,WSW,252,2.0,3.0,96,0.06,,,0.06,0.0,meteohub,2013-03-24 06:29:00,
2013-03-24 02:34:00,41.0,39.9,29.83,WSW,252,0.0,3.0,96,0.09,,,0.09,0.0,meteohub,2013-03-24 06:34:00,
2013-03-24 02:39:00,41.0,39.9,29.82,WSW,252,2.0,3.0,96,0.09,,,0.09,0.0,meteohub,2013-03-24 06:39:00,
2013-03-24 02:44:00,41.0,39.9,29.82,WSW,252,0.0,2.0,96,0.09,,,0.10,0.0,meteohub,2013-03-24 06:44:00,
2013-03-24 02:49:00,41.0,39.9,29.81,WSW,252,0.0,2.0,96,0.10,,,0.11,0.0,meteohub,2013-03-24 06:49:00,
2013-03-24 02:54:00,41.0,39.9,29.81,WSW,252,0.0,2.0,96,0.11,,,0.12,0.0,meteohub,2013-03-24 06:54:00,
2013-03-24 02:59:00,41.0,39.9,29.81,WSW,252,1.0,2.0,96,0.11,,,0.13,0.0,meteohub,2013-03-24 06:59:00,
2013-03-24 03:05:00,41.0,39.9,29.80,WSW,252,2.0,2.0,96,0.12,,,0.14,0.0,meteohub,2013-03-24 07:05:00,
2013-03-24 03:10:00,40.8,39.7,29.80,WSW,252,0.0,2.0,96,0.12,,,0.15,0.0,meteohub,2013-03-24 07:10:00,
2013-03-24 03:15:00,40.8,40.1,29.79,WSW,252,0.0,2.0,97,0.11,,,0.15,0.0,meteohub,2013-03-24 07:15:00,
2013-03-24 03:20:00,40.8,40.1,29.79,WSW,252,0.0,2.0,97,0.10,,,0.16,0.0,meteohub,2013-03-24 07:20:00,
2013-03-24 03:25:00,41.0,40.3,29.79,WSW,252,0.0,2.0,97,0.08,,,0.16,0.0,meteohub,2013-03-24 07:25:00,
2013-03-24 03:30:00,41.0,40.3,29.79,WSW,252,0.0,2.0,97,0.08,,,0.17,0.0,meteohub,2013-03-24 07:30:00,
2013-03-24 03:35:00,40.8,40.1,29.79,WSW,252,1.0,2.0,97,0.08,,,0.18,0.0,meteohub,2013-03-24 07:35:00,
2013-03-24 03:40:00,41.0,40.3,29.79,WSW,252,2.0,2.0,97,0.09,,,0.19,0.0,meteohub,2013-03-24 07:40:00,
2013-03-24 03:45:00,40.8,40.1,29.78,WSW,252,2.0,2.0,97,0.09,,,0.20,0.0,meteohub,2013-03-24 07:45:00,
2013-03-24 03:50:00,40.8,40.1,29.78,WSW,252,0.0,3.0,97,0.10,,,0.22,0.0,meteohub,2013-03-24 07:50:00,
2013-03-24 03:55:00,40.8,40.1,29.78,WSW,252,0.0,3.0,97,0.10,,,0.23,0.0,meteohub,2013-03-24 07:55:00,
2013-03-24 04:00:00,40.8,40.1,29.77,WSW,252,1.0,3.0,97,0.11,,,0.25,0.0,meteohub,2013-03-24 08:00:00,
2013-03-24 04:05:00,41.0,40.3,29.77,WSW,252,0.0,2.0,97,0.12,,,0.26,0.0,meteohub,2013-03-24 08:05:00,
2013-03-24 04:10:00,41.0,40.3,29.77,WSW,252,0.0,2.0,97,0.13,,,0.28,0.0,meteohub,2013-03-24 08:10:00,
2013-03-24 04:15:00,41.2,40.5,29.76,WSW,252,0.0,2.0,97,0.13,,,0.29,0.0,meteohub,2013-03-24 08:15:00,
2013-03-24 04:20:00,41.0,40.3,29.76,WSW,252,2.0,2.0,97,0.13,,,0.29,0.0,meteohub,2013-03-24 08:20:00,
2013-03-24 04:25:00,41.2,40.5,29.76,WSW,252,0.0,3.0,97,0.16,,,0.32,0.0,meteohub,2013-03-24 08:25:00,
2013-03-24 04:31:00,41.2,40.5,29.75,WSW,252,0.0,3.0,97,0.17,,,0.34,0.0,meteohub,2013-03-24 08:31:00,
2013-03-24 04:35:00,41.2,40.5,29.75,WSW,252,0.0,3.0,97,0.17,,,0.35,0.0,meteohub,2013-03-24 08:35:00,
2013-03-24 04:41:00,41.2,40.5,29.75,WSW,252,0.0,2.0,97,0.19,,,0.38,0.0,meteohub,2013-03-24 08:41:00,
2013-03-24 04:46:00,41.2,40.5,29.75,WSW,252,0.0,2.0,97,0.20,,,0.40,0.0,meteohub,2013-03-24 08:46:00,
2013-03-24 04:50:00,41.2,40.5,29.74,WSW,252,0.0,2.0,97,0.19,,,0.42,0.0,meteohub,2013-03-24 08:50:00,
2013-03-24 04:56:00,41.4,40.6,29.73,WSW,252,0.0,2.0,97,0.20,,,0.44,0.0,meteohub,2013-03-24 08:56:00,
2013-03-24 05:01:00,41.4,40.6,29.70,WSW,252,0.0,2.0,97,0.20,,,0.45,0.0,meteohub,2013-03-24 09:01:00,
2013-03-24 05:06:00,41.4,40.6,29.70,North,5,0.0,2.0,97,0.20,,,0.47,0.0,meteohub,2013-03-24 09:06:00,
2013-03-24 05:11:00,41.4,40.6,29.69,NNE,28,2.0,2.0,97,0.21,,,0.49,0.0,meteohub,2013-03-24 09:11:00,
2013-03-24 05:16:00,41.4,40.6,29.68,NNW,331,2.0,3.0,97,0.21,,,0.50,0.0,meteohub,2013-03-24 09:16:00,
2013-03-24 05:21:00,41.4,40.6,29.68,WNW,299,1.0,3.0,97,0.20,,,0.50,0.0,meteohub,2013-03-24 09:21:00,
2013-03-24 05:26:00,41.4,40.6,29.68,WNW,299,1.0,3.0,97,0.19,,,0.52,0.0,meteohub,2013-03-24 09:26:00,
2013-03-24 05:31:00,41.4,40.6,29.68,West,271,0.0,3.0,97,0.18,,,0.52,0.0,meteohub,2013-03-24 09:31:00,
2013-03-24 05:37:00,41.4,40.6,29.67,West,271,0.0,3.0,97,0.16,,,0.52,0.0,meteohub,2013-03-24 09:37:00,
2013-03-24 05:41:00,41.4,40.6,29.67,West,271,0.0,3.0,97,0.14,,,0.52,0.0,meteohub,2013-03-24 09:41:00,
2013-03-24 05:47:00,41.4,40.6,29.66,North,5,0.0,3.0,97,0.11,,,0.52,0.0,meteohub,2013-03-24 09:47:00,
2013-03-24 05:52:00,41.4,40.6,29.65,WSW,250,2.0,3.0,97,0.09,,,0.52,0.0,meteohub,2013-03-24 09:52:00,
2013-03-24 05:57:00,41.4,40.6,29.62,NNW,346,0.0,3.0,97,0.08,,,0.52,0.0,meteohub,2013-03-24 09:57:00,
2013-03-24 06:02:00,41.4,40.6,29.62,West,266,1.0,4.0,97,0.07,,,0.53,0.0,meteohub,2013-03-24 10:02:00,
2013-03-24 06:07:00,41.4,40.6,29.61,WSW,249,0.0,4.0,97,0.07,,,0.55,0.0,meteohub,2013-03-24 10:07:00,
2013-03-24 06:12:00,41.4,40.6,29.60,West,259,1.0,4.0,97,0.06,,,0.55,0.0,meteohub,2013-03-24 10:12:00,
2013-03-24 06:17:00,41.5,40.8,29.60,WSW,237,1.0,5.0,97,0.05,,,0.55,0.0,meteohub,2013-03-24 10:17:00,
2013-03-24 06:22:00,41.5,40.8,29.61,WSW,237,2.0,5.0,97,0.04,,,0.55,0.0,meteohub,2013-03-24 10:22:00,
2013-03-24 06:27:00,41.4,40.6,29.60,SSW,207,2.0,5.0,97,0.03,,,0.55,0.0,meteohub,2013-03-24 10:27:00,
2013-03-24 06:32:00,41.4,40.6,29.61,West,270,0.0,5.0,97,0.03,,,0.55,0.0,meteohub,2013-03-24 10:32:00,
2013-03-24 06:37:00,41.4,40.6,29.61,SW,229,0.0,5.0,97,0.04,,,0.56,0.0,meteohub,2013-03-24 10:37:00,
2013-03-24 06:42:00,41.4,40.6,29.61,SW,229,1.0,4.0,97,0.06,,,0.58,0.0,meteohub,2013-03-24 10:42:00,
2013-03-24 06:47:00,41.4,40.6,29.62,SW,229,0.0,3.0,97,0.09,,,0.61,0.0,meteohub,2013-03-24 10:47:00,
2013-03-24 06:52:00,41.4,40.6,29.60,South,175,1.0,3.0,97,0.10,,,0.62,0.0,meteohub,2013-03-24 10:52:00,
2013-03-24 06:57:00,41.4,40.6,29.62,West,264,0.0,3.0,97,0.11,,,0.64,0.0,meteohub,2013-03-24 10:57:00,
2013-03-24 07:02:00,41.2,40.5,29.63,West,279,1.0,6.0,97,0.11,,,0.65,0.0,meteohub,2013-03-24 11:02:00,
2013-03-24 07:07:00,40.8,40.3,29.63,SE,141,0.0,6.0,98,0.10,,,0.65,0.0,meteohub,2013-03-24 11:07:00,
2013-03-24 07:12:00,40.6,39.9,29.64,SSW,209,2.0,6.0,97,0.12,,,0.67,0.0,meteohub,2013-03-24 11:12:00,
2013-03-24 07:17:00,40.5,39.7,29.65,SW,221,2.0,4.0,97,0.15,,,0.70,0.0,meteohub,2013-03-24 11:17:00,
2013-03-24 07:22:00,40.5,39.7,29.69,West,265,1.0,4.0,97,0.15,,,0.70,0.0,meteohub,2013-03-24 11:22:00,
2013-03-24 07:27:00,40.5,39.7,29.70,WNW,286,3.0,4.0,97,0.18,,,0.73,0.0,meteohub,2013-03-24 11:27:00,
2013-03-24 07:32:00,40.3,39.6,29.72,West,280,0.0,4.0,97,0.22,,,0.76,0.0,meteohub,2013-03-24 11:32:00,
2013-03-24 07:37:00,40.5,39.7,29.72,WNW,283,3.0,4.0,97,0.23,,,0.80,0.0,meteohub,2013-03-24 11:37:00,
2013-03-24 07:42:00,40.5,39.9,29.73,WNW,288,0.0,4.0,98,0.25,,,0.84,0.0,meteohub,2013-03-24 11:42:00,
2013-03-24 07:47:00,40.5,39.9,29.72,WNW,288,0.0,4.0,98,0.26,,,0.87,0.0,meteohub,2013-03-24 11:47:00,
2013-03-24 07:52:00,40.5,39.9,29.69,WNW,288,0.0,4.0,98,0.28,,,0.91,0.0,meteohub,2013-03-24 11:52:00,
2013-03-24 07:57:00,40.5,39.7,29.65,SSW,207,2.0,2.0,97,0.28,,,0.93,9.0,meteohub,2013-03-24 11:57:00,
2013-03-24 08:02:00,40.5,39.7,29.63,WSW,249,0.0,2.0,97,0.29,,,0.94,16.0,meteohub,2013-03-24 12:02:00,
2013-03-24 08:08:00,40.5,39.9,29.63,SW,229,0.0,4.0,98,0.30,,,0.96,28.0,meteohub,2013-03-24 12:08:00,
2013-03-24 08:13:00,40.3,39.6,29.63,ESE,116,2.0,4.0,97,0.28,,,0.96,30.0,meteohub,2013-03-24 12:13:00,
2013-03-24 08:18:00,40.3,39.6,29.63,SSW,211,2.0,3.0,97,0.26,,,0.96,19.0,meteohub,2013-03-24 12:18:00,
2013-03-24 08:23:00,39.9,39.2,29.65,SW,229,0.0,5.0,97,0.25,,,0.96,12.0,meteohub,2013-03-24 12:23:00,
2013-03-24 08:28:00,39.9,39.4,29.64,South,186,1.0,5.0,98,0.21,,,0.96,9.0,meteohub,2013-03-24 12:28:00,
2013-03-24 08:33:00,39.7,39.2,29.63,SW,234,1.0,5.0,98,0.18,,,0.96,14.0,meteohub,2013-03-24 12:33:00,
2013-03-24 08:38:00,39.7,39.0,29.64,WSW,258,2.0,5.0,97,0.14,,,0.96,18.0,meteohub,2013-03-24 12:38:00,
2013-03-24 08:43:00,39.6,38.8,29.63,SE,132,1.0,7.0,97,0.11,,,0.96,5.0,meteohub,2013-03-24 12:43:00,
2013-03-24 08:48:00,39.4,38.7,29.62,SW,220,2.0,7.0,97,0.07,,,0.96,19.0,meteohub,2013-03-24 12:48:00,
2013-03-24 08:53:00,39.4,38.7,29.62,West,269,3.0,7.0,97,0.04,,,0.96,21.0,meteohub,2013-03-24 12:53:00,
2013-03-24 08:58:00,39.4,38.7,29.62,WSW,257,0.0,4.0,97,0.02,,,0.96,14.0,meteohub,2013-03-24 12:58:00,
2013-03-24 09:03:00,39.4,38.7,29.62,WSW,253,0.0,4.0,97,0.01,,,0.96,19.0,meteohub,2013-03-24 13:03:00,
2013-03-24 09:08:00,39.6,38.8,29.63,SSW,213,2.0,4.0,97,0.00,,,0.96,18.0,meteohub,2013-03-24 13:08:00,
2013-03-24 09:13:00,39.6,38.8,29.63,SW,232,3.0,4.0,97,0.00,,,0.96,16.0,meteohub,2013-03-24 13:13:00,
2013-03-24 09:18:00,39.4,38.7,29.63,SSE,164,1.0,5.0,97,0.00,,,0.96,18.0,meteohub,2013-03-24 13:18:00,
2013-03-24 09:23:00,39.6,38.8,29.62,West,262,2.0,5.0,97,0.00,,,0.96,30.0,meteohub,2013-03-24 13:23:00,
2013-03-24 09:28:00,39.4,38.7,29.63,West,269,4.0,5.0,97,0.01,,,0.97,33.0,meteohub,2013-03-24 13:28:00,
2013-03-24 09:34:00,39.4,38.7,29.64,SE,141,0.0,5.0,97,0.01,,,0.97,23.0,meteohub,2013-03-24 13:34:00,
2013-03-24 09:39:00,39.0,38.3,29.64,WSW,243,1.0,6.0,97,0.01,,,0.97,21.0,meteohub,2013-03-24 13:39:00,
2013-03-24 09:44:00,39.0,38.3,29.63,West,263,2.0,6.0,97,0.02,,,0.98,46.0,meteohub,2013-03-24 13:44:00,
2013-03-24 09:49:00,39.4,38.7,29.64,SW,231,1.0,6.0,97,0.03,,,0.99,46.0,meteohub,2013-03-24 13:49:00,
2013-03-24 09:54:00,39.4,38.8,29.63,WSW,246,2.0,5.0,98,0.04,,,1.00,42.0,meteohub,2013-03-24 13:54:00,
2013-03-24 09:59:00,39.4,38.8,29.63,North,355,1.0,5.0,98,0.05,,,1.01,32.0,meteohub,2013-03-24 13:59:00,
2013-03-24 10:04:00,39.0,38.3,29.62,SW,219,3.0,5.0,97,0.06,,,1.02,51.0,meteohub,2013-03-24 14:04:00,
2013-03-24 10:09:00,39.2,38.5,29.63,NW,309,1.0,5.0,97,0.07,,,1.03,46.0,meteohub,2013-03-24 14:09:00,
2013-03-24 10:14:00,39.4,38.8,29.63,SW,219,5.0,5.0,98,0.07,,,1.03,49.0,meteohub,2013-03-24 14:14:00,
2013-03-24 10:20:00,39.4,38.8,29.63,WSW,255,0.0,7.0,98,0.08,,,1.04,40.0,meteohub,2013-03-24 14:20:00,
2013-03-24 10:25:00,39.4,38.8,29.62,SSW,206,1.0,7.0,98,0.08,,,1.04,62.0,meteohub,2013-03-24 14:25:00,
2013-03-24 10:30:00,39.2,38.7,29.61,SSE,167,1.0,7.0,98,0.07,,,1.04,83.0,meteohub,2013-03-24 14:30:00,
2013-03-24 10:35:00,39.6,38.8,29.61,WSW,257,3.0,6.0,97,0.08,,,1.06,65.0,meteohub,2013-03-24 14:35:00,
2013-03-24 10:40:00,39.6,38.8,29.61,West,264,2.0,6.0,97,0.09,,,1.06,62.0,meteohub,2013-03-24 14:40:00,
2013-03-24 10:45:00,39.6,38.8,29.61,WNW,282,3.0,6.0,97,0.08,,,1.07,67.0,meteohub,2013-03-24 14:45:00,
2013-03-24 10:50:00,39.6,38.8,29.61,WSW,256,3.0,4.0,97,0.07,,,1.07,77.0,meteohub,2013-03-24 14:50:00,
2013-03-24 10:55:00,39.7,39.2,29.60,West,261,1.0,9.0,98,0.06,,,1.07,77.0,meteohub,2013-03-24 14:55:00,
2013-03-24 11:00:00,39.6,38.8,29.60,SW,222,0.0,9.0,97,0.06,,,1.08,63.0,meteohub,2013-03-24 15:00:00,
2013-03-24 11:05:00,39.6,38.8,29.61,SSE,165,1.0,9.0,97,0.05,,,1.08,60.0,meteohub,2013-03-24 15:05:00,
2013-03-24 11:10:00,39.7,39.2,29.60,South,186,1.0,4.0,98,0.05,,,1.08,91.0,meteohub,2013-03-24 15:10:00,
2013-03-24 11:15:00,40.3,39.6,29.61,South,189,0.0,4.0,97,0.04,,,1.08,79.0,meteohub,2013-03-24 15:15:00,
2013-03-24 11:20:00,40.3,39.6,29.61,South,189,0.0,2.0,97,0.05,,,1.09,111.0,meteohub,2013-03-24 15:20:00,
2013-03-24 11:25:00,40.5,39.9,29.61,South,189,0.0,2.0,98,0.05,,,1.10,100.0,meteohub,2013-03-24 15:25:00,
2013-03-24 11:30:00,40.6,40.1,29.61,South,189,1.0,2.0,98,0.05,,,1.10,130.0,meteohub,2013-03-24 15:30:00,
2013-03-24 11:35:00,41.0,40.5,29.61,South,189,1.0,2.0,98,0.05,,,1.11,84.0,meteohub,2013-03-24 15:35:00,
2013-03-24 11:41:00,41.0,40.5,29.61,South,176,0.0,2.0,98,0.05,,,1.12,86.0,meteohub,2013-03-24 15:41:00,
2013-03-24 11:46:00,41.2,40.6,29.61,South,190,2.0,2.0,98,0.05,,,1.12,102.0,meteohub,2013-03-24 15:46:00,
2013-03-24 11:51:00,40.8,40.1,29.61,SSW,207,1.0,2.0,97,0.06,,,1.13,141.0,meteohub,2013-03-24 15:51:00,
2013-03-24 11:56:00,41.4,40.6,29.61,SSW,207,0.0,3.0,97,0.06,,,1.13,149.0,meteohub,2013-03-24 15:56:00,
2013-03-24 12:01:00,41.2,40.6,29.60,SSW,207,2.0,3.0,98,0.05,,,1.13,123.0,meteohub,2013-03-24 16:01:00,
2013-03-24 12:07:00,41.0,40.5,29.61,WSW,244,0.0,3.0,98,0.06,,,1.14,111.0,meteohub,2013-03-24 16:07:00,
2013-03-24 12:12:00,40.6,39.9,29.62,WSW,248,3.0,5.0,97,0.06,,,1.14,98.0,meteohub,2013-03-24 16:12:00,
2013-03-24 12:17:00,40.6,40.1,29.62,WSW,248,0.0,7.0,98,0.06,,,1.14,97.0,meteohub,2013-03-24 16:17:00,
2013-03-24 12:22:00,41.0,40.5,29.62,WSW,248,0.0,7.0,98,0.06,,,1.15,72.0,meteohub,2013-03-24 16:22:00,
2013-03-24 12:27:00,40.6,39.9,29.62,WSW,246,0.0,5.0,97,0.05,,,1.15,95.0,meteohub,2013-03-24 16:27:00,
2013-03-24 12:32:00,40.6,39.9,29.61,SSW,197,0.0,3.0,97,0.04,,,1.15,98.0,meteohub,2013-03-24 16:32:00,
2013-03-24 12:37:00,40.8,40.3,29.61,SSW,197,0.0,3.0,98,0.04,,,1.15,107.0,meteohub,2013-03-24 16:37:00,
2013-03-24 12:42:00,40.6,39.9,29.61,SSE,162,1.0,3.0,97,0.04,,,1.16,146.0,meteohub,2013-03-24 16:42:00,
2013-03-24 12:47:00,40.6,39.9,29.61,WSW,243,2.0,4.0,97,0.04,,,1.16,139.0,meteohub,2013-03-24 16:47:00,
2013-03-24 12:52:00,41.0,40.3,29.60,SW,223,0.0,4.0,97,0.03,,,1.16,181.0,meteohub,2013-03-24 16:52:00,
2013-03-24 12:57:00,41.0,40.5,29.60,South,189,1.0,3.0,98,0.04,,,1.17,167.0,meteohub,2013-03-24 16:57:00,
2013-03-24 13:02:00,41.2,40.6,29.60,SW,236,2.0,4.0,98,0.04,,,1.17,144.0,meteohub,2013-03-24 17:02:00,
2013-03-24 13:07:00,41.7,41.2,29.60,South,182,1.0,4.0,98,0.03,,,1.17,308.0,meteohub,2013-03-24 17:07:00,
2013-03-24 13:12:00,41.7,41.0,29.60,SSW,196,0.0,4.0,97,0.03,,,1.17,179.0,meteohub,2013-03-24 17:12:00,
2013-03-24 13:17:00,42.1,41.5,29.59,SW,223,0.0,4.0,98,0.03,,,1.17,183.0,meteohub,2013-03-24 17:17:00,
2013-03-24 13:22:00,42.4,41.7,29.59,SW,226,1.0,4.0,97,0.02,,,1.17,174.0,meteohub,2013-03-24 17:22:00,
2013-03-24 13:28:00,41.7,41.0,29.58,South,176,3.0,4.0,97,0.02,,,1.17,313.0,meteohub,2013-03-24 17:28:00,
2013-03-24 13:33:00,42.1,41.4,29.58,South,178,1.0,4.0,97,0.02,,,1.17,218.0,meteohub,2013-03-24 17:33:00,
2013-03-24 13:38:00,43.2,42.4,29.58,SW,223,2.0,3.0,97,0.01,,,1.17,200.0,meteohub,2013-03-24 17:38:00,
2013-03-24 13:43:00,43.0,42.3,29.58,WSW,253,1.0,3.0,97,0.01,,,1.17,304.0,meteohub,2013-03-24 17:43:00,
2013-03-24 13:48:00,43.2,42.4,29.57,SE,144,2.0,4.0,97,0.01,,,1.17,243.0,meteohub,2013-03-24 17:48:00,
2013-03-24 13:53:00,43.2,42.4,29.56,SSE,168,2.0,4.0,97,0.00,,,1.17,388.0,meteohub,2013-03-24 17:53:00,
2013-03-24 13:58:00,43.2,42.4,29.56,SSW,198,3.0,4.0,97,0.00,,,1.17,302.0,meteohub,2013-03-24 17:58:00,
2013-03-24 14:03:00,43.0,41.9,29.55,ESE,110,4.0,7.0,96,0.00,,,1.17,276.0,meteohub,2013-03-24 18:03:00,
2013-03-24 14:08:00,43.3,42.3,29.55,SE,142,0.0,7.0,96,0.00,,,1.17,229.0,meteohub,2013-03-24 18:08:00,
2013-03-24 14:13:00,43.0,41.9,29.55,NE,49,1.0,7.0,96,0.00,,,1.17,206.0,meteohub,2013-03-24 18:13:00,
2013-03-24 14:18:00,42.6,41.5,29.55,NW,324,2.0,5.0,96,0.00,,,1.17,137.0,meteohub,2013-03-24 18:18:00,
2013-03-24 14:24:00,43.0,41.9,29.55,SSW,195,2.0,5.0,96,0.00,,,1.17,144.0,meteohub,2013-03-24 18:24:00,
2013-03-24 14:29:00,42.4,41.4,29.55,SE,125,0.0,5.0,96,0.00,,,1.17,183.0,meteohub,2013-03-24 18:29:00,
2013-03-24 14:34:00,42.3,41.2,29.55,South,190,2.0,3.0,96,0.00,,,1.17,153.0,meteohub,2013-03-24 18:34:00,
2013-03-24 14:39:00,42.3,41.2,29.54,SSE,158,2.0,3.0,96,0.00,,,1.17,144.0,meteohub,2013-03-24 18:39:00,
2013-03-24 14:44:00,41.9,40.8,29.54,SW,229,1.0,3.0,96,0.00,,,1.17,135.0,meteohub,2013-03-24 18:44:00,
2013-03-24 14:49:00,42.4,41.4,29.53,NE,53,0.0,3.0,96,0.00,,,1.17,169.0,meteohub,2013-03-24 18:49:00,
2013-03-24 14:54:00,42.8,42.1,29.53,SSW,200,1.0,3.0,97,0.00,,,1.17,171.0,meteohub,2013-03-24 18:54:00,
2013-03-24 14:59:00,43.2,42.4,29.53,ENE,71,2.0,3.0,97,0.00,,,1.17,165.0,meteohub,2013-03-24 18:59:00,
2013-03-24 15:04:00,42.8,41.7,29.53,SSE,154,0.0,3.0,96,0.00,,,1.17,142.0,meteohub,2013-03-24 19:04:00,
2013-03-24 15:09:00,43.0,41.9,29.53,SSE,167,2.0,6.0,96,0.00,,,1.17,125.0,meteohub,2013-03-24 19:09:00,
2013-03-24 15:14:00,42.4,41.4,29.52,ESE,122,3.0,6.0,96,0.00,,,1.17,188.0,meteohub,2013-03-24 19:14:00,
2013-03-24 15:19:00,42.4,41.4,29.52,SSE,163,0.0,6.0,96,0.00,,,1.17,165.0,meteohub,2013-03-24 19:19:00,
2013-03-24 15:24:00,42.4,41.4,29.52,WSW,238,3.0,5.0,96,0.00,,,1.17,137.0,meteohub,2013-03-24 19:24:00,
2013-03-24 15:30:00,42.4,41.2,29.52,SW,219,2.0,5.0,95,0.00,,,1.17,151.0,meteohub,2013-03-24 19:30:00,
2013-03-24 15:35:00,42.4,41.2,29.51,NW,318,1.0,4.0,95,0.00,,,1.17,153.0,meteohub,2013-03-24 19:35:00,
2013-03-24 15:40:00,42.3,41.0,29.52,SE,128,2.0,4.0,95,0.00,,,1.17,120.0,meteohub,2013-03-24 19:40:00,
2013-03-24 15:45:00,42.4,41.2,29.51,ENE,58,3.0,5.0,95,0.00,,,1.17,162.0,meteohub,2013-03-24 19:45:00,
2013-03-24 15:50:00,42.6,41.4,29.51,SSE,147,2.0,5.0,95,0.00,,,1.17,156.0,meteohub,2013-03-24 19:50:00,
2013-03-24 15:55:00,42.6,41.4,29.49,SSE,156,0.0,5.0,95,0.00,,,1.17,142.0,meteohub,2013-03-24 19:55:00,
2013-03-24 16:00:00,43.2,41.9,29.50,South,177,1.0,5.0,95,0.00,,,1.17,134.0,meteohub,2013-03-24 20:00:00,
2013-03-24 16:05:00,42.8,41.2,29.50,SSE,155,1.0,4.0,94,0.00,,,1.17,93.0,meteohub,2013-03-24 20:05:00,
2013-03-24 16:10:00,42.4,40.8,29.50,SSW,194,3.0,4.0,94,0.00,,,1.17,102.0,meteohub,2013-03-24 20:10:00,
2013-03-24 16:15:00,42.3,40.6,29.50,South,171,2.0,4.0,94,0.00,,,1.17,114.0,meteohub,2013-03-24 20:15:00,
2013-03-24 16:20:00,42.4,40.8,29.50,SSE,148,1.0,4.0,94,0.00,,,1.17,93.0,meteohub,2013-03-24 20:20:00,
2013-03-24 16:25:00,42.3,40.6,29.50,SSW,208,0.0,3.0,94,0.00,,,1.17,77.0,meteohub,2013-03-24 20:25:00,
2013-03-24 16:30:00,42.4,40.8,29.52,SW,217,1.0,3.0,94,0.00,,,1.17,62.0,meteohub,2013-03-24 20:30:00,
2013-03-24 16:35:00,42.1,40.5,29.52,SSW,202,1.0,3.0,94,0.00,,,1.17,60.0,meteohub,2013-03-24 20:35:00,
2013-03-24 16:40:00,42.1,40.5,29.52,ESE,114,1.0,3.0,94,0.00,,,1.17,54.0,meteohub,2013-03-24 20:40:00,
2013-03-24 16:45:00,42.3,41.0,29.52,SSW,207,0.0,3.0,95,0.00,,,1.17,56.0,meteohub,2013-03-24 20:45:00,
2013-03-24 16:50:00,42.3,41.0,29.51,SSE,161,1.0,9.0,95,0.00,,,1.17,51.0,meteohub,2013-03-24 20:50:00,
2013-03-24 16:55:00,42.1,40.8,29.51,SSE,165,2.0,9.0,95,0.00,,,1.17,30.0,meteohub,2013-03-24 20:55:00,
2013-03-24 17:00:00,41.9,40.6,29.51,SSW,196,0.0,9.0,95,0.00,,,1.17,26.0,meteohub,2013-03-24 21:00:00,
2013-03-24 17:05:00,41.7,40.6,29.51,SW,218,0.0,8.0,96,0.00,,,1.17,28.0,meteohub,2013-03-24 21:05:00,
2013-03-24 17:10:00,41.5,40.5,29.51,SSW,213,0.0,8.0,96,0.00,,,1.17,26.0,meteohub,2013-03-24 21:10:00,
2013-03-24 17:15:00,41.2,40.1,29.51,SSW,210,2.0,8.0,96,0.00,,,1.17,26.0,meteohub,2013-03-24 21:15:00,
2013-03-24 17:20:00,40.8,39.7,29.51,South,177,3.0,8.0,96,0.00,,,1.17,23.0,meteohub,2013-03-24 21:20:00,
2013-03-24 17:25:00,40.6,39.6,29.52,SW,231,4.0,8.0,96,0.00,,,1.17,19.0,meteohub,2013-03-24 21:25:00,
2013-03-24 17:30:00,40.6,39.6,29.51,SSE,150,0.0,5.0,96,0.00,,,1.17,21.0,meteohub,2013-03-24 21:30:00,
2013-03-24 17:36:00,40.5,39.4,29.52,South,178,0.0,5.0,96,0.00,,,1.17,25.0,meteohub,2013-03-24 21:36:00,
2013-03-24 17:41:00,40.3,39.2,29.51,South,177,1.0,5.0,96,0.00,,,1.17,28.0,meteohub,2013-03-24 21:41:00,
2013-03-24 17:46:00,40.1,39.0,29.51,SW,216,5.0,5.0,96,0.01,,,1.18,28.0,meteohub,2013-03-24 21:46:00,
2013-03-24 17:51:00,39.9,39.2,29.50,South,169,2.0,8.0,97,0.01,,,1.18,28.0,meteohub,2013-03-24 21:51:00,
2013-03-24 17:56:00,39.9,39.2,29.50,South,173,1.0,8.0,97,0.01,,,1.18,32.0,meteohub,2013-03-24 21:56:00,
2013-03-24 18:02:00,39.7,39.0,29.49,South,174,1.0,6.0,97,0.01,,,1.18,28.0,meteohub,2013-03-24 22:02:00,
2013-03-24 18:07:00,39.7,39.0,29.49,SSW,207,1.0,5.0,97,0.01,,,1.18,26.0,meteohub,2013-03-24 22:07:00,
2013-03-24 18:12:00,39.7,39.0,29.50,SW,228,2.0,5.0,97,0.01,,,1.18,25.0,meteohub,2013-03-24 22:12:00,
2013-03-24 18:17:00,39.6,38.8,29.50,WSW,247,1.0,6.0,97,0.01,,,1.18,21.0,meteohub,2013-03-24 22:17:00,
2013-03-24 18:22:00,39.4,38.7,29.51,WSW,256,1.0,6.0,97,0.01,,,1.18,16.0,meteohub,2013-03-24 22:22:00,
2013-03-24 18:27:00,39.2,38.5,29.52,SE,135,0.0,9.0,97,0.01,,,1.18,11.0,meteohub,2013-03-24 22:27:00,
2013-03-24 18:32:00,39.2,38.5,29.53,South,169,2.0,9.0,97,0.01,,,1.18,9.0,meteohub,2013-03-24 22:32:00,
2013-03-24 18:37:00,39.0,38.3,29.52,WSW,258,0.0,6.0,97,0.01,,,1.18,11.0,meteohub,2013-03-24 22:37:00,
2013-03-24 18:42:00,38.8,38.1,29.50,South,190,1.0,6.0,97,0.00,,,1.18,19.0,meteohub,2013-03-24 22:42:00,
2013-03-24 18:47:00,38.8,38.1,29.51,SSW,194,1.0,7.0,97,0.00,,,1.18,14.0,meteohub,2013-03-24 22:47:00,
2013-03-24 18:52:00,38.8,38.1,29.51,SSW,205,2.0,7.0,97,0.00,,,1.18,7.0,meteohub,2013-03-24 22:52:00,
2013-03-24 18:57:00,38.7,37.9,29.51,SSW,198,1.0,4.0,97,0.00,,,1.18,7.0,meteohub,2013-03-24 22:57:00,
2013-03-24 19:02:00,38.7,37.9,29.51,SSE,162,1.0,7.0,97,0.00,,,1.18,7.0,meteohub,2013-03-24 23:02:00,
2013-03-24 19:07:00,38.7,37.9,29.51,SW,227,3.0,7.0,97,0.00,,,1.18,5.0,meteohub,2013-03-24 23:07:00,
2013-03-24 19:12:00,38.5,37.8,29.51,SW,223,2.0,7.0,97,0.00,,,1.18,5.0,meteohub,2013-03-24 23:12:00,
2013-03-24 19:17:00,38.3,37.6,29.49,SE,145,3.0,5.0,97,0.00,,,1.18,0.0,meteohub,2013-03-24 23:17:00,
2013-03-24 19:22:00,38.1,37.4,29.51,SSE,168,0.0,6.0,97,0.00,,,1.18,0.0,meteohub,2013-03-24 23:22:00,
2013-03-24 19:27:00,38.1,37.4,29.51,SSW,201,1.0,6.0,97,0.01,,,1.19,0.0,meteohub,2013-03-24 23:27:00,
2013-03-24 19:33:00,38.1,37.4,29.51,SW,236,1.0,6.0,97,0.01,,,1.19,0.0,meteohub,2013-03-24 23:33:00,
2013-03-24 19:38:00,38.1,37.4,29.52,SSW,198,0.0,4.0,97,0.01,,,1.19,0.0,meteohub,2013-03-24 23:38:00,
2013-03-24 19:43:00,37.9,37.2,29.52,SSW,211,4.0,6.0,97,0.01,,,1.19,0.0,meteohub,2013-03-24 23:43:00,
2013-03-24 19:48:00,37.9,37.2,29.52,SSW,211,1.0,6.0,97,0.01,,,1.19,0.0,meteohub,2013-03-24 23:48:00,
2013-03-24 19:53:00,37.9,37.2,29.51,SE,142,0.0,5.0,97,0.01,,,1.19,0.0,meteohub,2013-03-24 23:53:00,
2013-03-24 19:58:00,37.9,37.2,29.51,SSE,149,2.0,5.0,97,0.01,,,1.19,0.0,meteohub,2013-03-24 23:58:00,
2013-03-24 20:03:00,37.8,37.0,29.51,SW,231,0.0,5.0,97,0.01,,,1.19,0.0,meteohub,2013-03-25 00:03:00,
2013-03-24 20:08:00,37.8,37.0,29.51,SW,214,0.0,4.0,97,0.02,,,1.20,0.0,meteohub,2013-03-25 00:08:00,
2013-03-24 20:13:00,37.8,37.0,29.52,SW,214,1.0,4.0,97,0.03,,,1.21,0.0,meteohub,2013-03-25 00:13:00,
2013-03-24 20:18:00,37.8,37.0,29.52,SSE,166,1.0,4.0,97,0.04,,,1.22,0.0,meteohub,2013-03-25 00:18:00,
2013-03-24 20:23:00,37.8,37.2,29.52,SSE,167,1.0,4.0,98,0.04,,,1.22,0.0,meteohub,2013-03-25 00:23:00,
2013-03-24 20:28:00,37.8,37.2,29.52,SW,217,0.0,4.0,98,0.03,,,1.22,0.0,meteohub,2013-03-25 00:28:00,
2013-03-24 20:33:00,37.6,37.0,29.52,SE,125,1.0,4.0,98,0.04,,,1.22,0.0,meteohub,2013-03-25 00:33:00,
2013-03-24 20:38:00,37.6,37.0,29.52,South,181,0.0,4.0,98,0.04,,,1.23,0.0,meteohub,2013-03-25 00:38:00,
2013-03-24 20:44:00,37.8,37.2,29.53,SW,221,2.0,4.0,98,0.04,,,1.23,0.0,meteohub,2013-03-25 00:44:00,
2013-03-24 20:49:00,37.6,37.0,29.53,WNW,285,4.0,4.0,98,0.05,,,1.24,0.0,meteohub,2013-03-25 00:49:00,
2013-03-24 20:54:00,37.4,36.9,29.53,SSW,203,0.0,4.0,98,0.05,,,1.24,0.0,meteohub,2013-03-25 00:54:00,
2013-03-24 20:59:00,37.4,36.9,29.53,SSW,203,3.0,7.0,98,0.05,,,1.24,0.0,meteohub,2013-03-25 00:59:00,
2013-03-24 21:04:00,37.2,36.7,29.53,SSW,199,1.0,7.0,98,0.05,,,1.24,0.0,meteohub,2013-03-25 01:04:00,
2013-03-24 21:09:00,37.2,36.7,29.53,SSW,202,0.0,7.0,98,0.04,,,1.24,0.0,meteohub,2013-03-25 01:09:00,
2013-03-24 21:14:00,37.2,36.7,29.53,South,191,1.0,4.0,98,0.03,,,1.24,0.0,meteohub,2013-03-25 01:14:00,
2013-03-24 21:19:00,37.2,36.7,29.53,SE,145,0.0,4.0,98,0.02,,,1.24,0.0,meteohub,2013-03-25 01:19:00,
2013-03-24 21:24:00,37.2,36.7,29.53,SW,231,0.0,4.0,98,0.02,,,1.24,0.0,meteohub,2013-03-25 01:24:00,
2013-03-24 21:29:00,37.2,36.7,29.53,SW,216,0.0,4.0,98,0.02,,,1.24,0.0,meteohub,2013-03-25 01:29:00,
2013-03-24 21:34:00,37.2,36.7,29.53,SW,221,3.0,4.0,98,0.01,,,1.24,0.0,meteohub,2013-03-25 01:34:00,
2013-03-24 21:39:00,37.0,36.5,29.53,SSW,211,1.0,4.0,98,0.01,,,1.24,0.0,meteohub,2013-03-25 01:39:00,
2013-03-24 21:44:00,37.0,36.5,29.53,WSW,256,0.0,4.0,98,0.01,,,1.24,0.0,meteohub,2013-03-25 01:44:00,
2013-03-24 21:50:00,37.0,36.5,29.53,South,191,1.0,4.0,98,0.00,,,1.24,0.0,meteohub,2013-03-25 01:50:00,
2013-03-24 21:55:00,37.0,36.5,29.54,SSW,201,3.0,4.0,98,0.00,,,1.24,0.0,meteohub,2013-03-25 01:55:00,
2013-03-24 22:00:00,37.0,36.5,29.54,SW,228,2.0,3.0,98,0.00,,,1.24,0.0,meteohub,2013-03-25 02:00:00,
2013-03-24 22:05:00,37.0,36.5,29.53,SSW,194,1.0,4.0,98,0.00,,,1.24,0.0,meteohub,2013-03-25 02:05:00,
2013-03-24 22:10:00,37.0,36.5,29.53,SSW,199,0.0,4.0,98,0.00,,,1.24,0.0,meteohub,2013-03-25 02:10:00,
2013-03-24 22:15:00,37.0,36.5,29.53,SE,136,1.0,4.0,98,0.00,,,1.24,0.0,meteohub,2013-03-25 02:15:00,
2013-03-24 22:20:00,37.0,36.5,29.53,SSE,150,3.0,6.0,98,0.00,,,1.24,0.0,meteohub,2013-03-25 02:20:00,
2013-03-24 22:25:00,37.0,36.5,29.53,SW,216,2.0,6.0,98,0.00,,,1.24,0.0,meteohub,2013-03-25 02:25:00,
2013-03-24 22:30:00,37.0,36.5,29.53,SSE,147,0.0,6.0,98,0.00,,,1.24,0.0,meteohub,2013-03-25 02:30:00,
2013-03-24 22:35:00,37.0,36.5,29.53,SW,215,1.0,6.0,98,0.01,,,1.25,0.0,meteohub,2013-03-25 02:35:00,
2013-03-24 22:40:00,36.9,36.3,29.53,SW,215,2.0,6.0,98,0.01,,,1.25,0.0,meteohub,2013-03-25 02:40:00,
2013-03-24 22:46:00,37.0,36.5,29.52,WSW,240,2.0,5.0,98,0.01,,,1.25,0.0,meteohub,2013-03-25 02:46:00,
2013-03-24 22:51:00,36.9,36.3,29.52,SW,217,1.0,5.0,98,0.01,,,1.25,0.0,meteohub,2013-03-25 02:51:00,
2013-03-24 22:56:00,36.9,36.3,29.52,South,188,1.0,5.0,98,0.01,,,1.25,0.0,meteohub,2013-03-25 02:56:00,
2013-03-24 23:01:00,36.9,36.3,29.52,SW,220,0.0,5.0,98,0.01,,,1.25,0.0,meteohub,2013-03-25 03:01:00,
2013-03-24 23:06:00,36.9,36.3,29.52,SW,230,2.0,6.0,98,0.01,,,1.25,0.0,meteohub,2013-03-25 03:06:00,
2013-03-24 23:11:00,36.9,36.3,29.52,SSE,152,0.0,6.0,98,0.01,,,1.25,0.0,meteohub,2013-03-25 03:11:00,
2013-03-24 23:16:00,36.9,36.3,29.52,South,172,2.0,6.0,98,0.01,,,1.25,0.0,meteohub,2013-03-25 03:16:00,
2013-03-24 23:21:00,36.9,36.3,29.52,East,95,1.0,5.0,98,0.01,,,1.25,0.0,meteohub,2013-03-25 03:21:00,
2013-03-24 23:27:00,36.9,36.3,29.52,SSW,209,0.0,5.0,98,0.01,,,1.25,0.0,meteohub,2013-03-25 03:27:00,
2013-03-24 23:32:00,36.9,36.3,29.53,SSW,195,0.0,5.0,98,0.00,,,1.25,0.0,meteohub,2013-03-25 03:32:00,
2013-03-24 23:37:00,36.9,36.3,29.53,SW,235,0.0,4.0,98,0.01,,,1.26,0.0,meteohub,2013-03-25 03:37:00,
2013-03-24 23:42:00,36.7,36.1,29.53,SW,231,4.0,5.0,98,0.02,,,1.27,0.0,meteohub,2013-03-25 03:42:00,
2013-03-24 23:47:00,36.5,36.0,29.52,WSW,238,2.0,5.0,98,0.03,,,1.28,0.0,meteohub,2013-03-25 03:47:00,
2013-03-24 23:52:00,36.3,35.8,29.52,South,189,2.0,5.0,98,0.03,,,1.28,0.0,meteohub,2013-03-25 03:52:00,
2013-03-24 23:57:00,36.0,35.4,29.52,SW,222,1.0,8.0,98,0.03,,,1.28,0.0,meteohub,2013-03-25 03:57:00,